Theta_e
307 307 307 308 307 305 301 294 286 305 306 290 289 284 283 290 286 287 286 285 283 284 287 284 285 283 286 292 293 288 292 288 279 284 293 296 295 292 292 286 281 283 280 284
307 307 308 308 307 307 299 291 294 304 302 283 285 287 285 287 285 286 285 284 286 286 285 282 285 286 290 292 292 289 293 286 280 278 284 291 291 293 293 292 288 284 279 285
307 307 308 308 308 308 299 294 286 291 290 286 286 284 282 282 287 285 285 285 286 284 283 284 285 288 288 291 292 296 296 285 282 278 279 285 286 290 292 291 286 286 286 288
307 307 308 308 308 307 294 288 285 286 282 281 286 283 283 282 280 285 285 284 284 282 281 280 281 286 286 289 294 294 294 285 286 287 287 287 289 287 289 288 290 286 289 289
305 309 308 307 307 301 290 285 286 286 283 286 285 286 282 282 282 282 282 282 283 283 280 283 280 284 284 284 289 290 293 283 287 284 288 288 286 289 290 290 290 289 290 290
308 308 307 306 303 298 287 286 286 287 287 285 283 278 283 282 284 284 285 285 284 282 283 285 287 287 287 287 286 286 286 285 282 276 285 284 282 286 288 289 292 293 288 293
307 306 305 304 302 297 290 286 287 285 278 283 280 282 283 283 283 283 285 286 284 286 289 290 288 287 286 285 285 288 281 279 275 271 276 272 283 290 292 289 291 294 295 296
307 305 305 304 303 301 292 291 287 282 277 280 282 283 282 284 285 283 285 285 287 291 288 282 277 280 280 278 285 285 287 282 272 268 265 279 281 285 287 287 288 294 293 295
305 305 305 304 302 300 292 289 289 285 283 277 282 282 284 278 271 277 282 289 288 289 283 273 272 269 268 268 279 286 286 286 279 266 265 268 282 288 293 293 284 295 295 295
305 304 304 303 302 300 292 288 288 286 280 281 281 280 281 282 279 276 284 285 287 287 282 278 268 267 276 270 276 280 281 281 277 276 271 276 284 288 294 283 286 290 297 297
304 304 304 302 301 299 292 287 289 285 283 283 282 285 282 282 280 276 282 282 284 283 280 273 270 268 274 272 277 280 280 279 278 279 276 274 287 289 288 292 287 287 291 298
304 303 302 302 301 300 295 286 289 290 284 283 284 288 288 289 287 284 282 279 279 284 282 273 270 271 280 277 275 283 279 284 282 283 281 285 287 283 285 285 286 288 288 290
303 302 302 301 300 299 294 287 286 285 280 283 282 283 288 291 291 291 285 285 287 286 288 281 281 281 278 272 279 279 284 277 282 283 281 278 280 282 281 282 284 286 287 287
301 301 300 299 299 297 294 286 286 284 279 276 282 290 287 291 291 291 290 289 290 290 290 285 284 283 286 280 281 280 273 272 272 281 278 277 281 277 277 279 282 281 284 283
299 299 298 298 297 295 291 288 288 287 283 277 280 284 286 287 289 289 289 289 287 285 284 283 282 285 284 282 276 265 266 263 266 272 268 267 271 275 275 276 278 278 280 281
298 298 298 297 295 292 287 281 286 289 285 278 273 282 283 282 287 288 288 288 286 285 284 284 285 276 278 277 263 262 263 263 263 262 265 265 267 271 274 273 276 276 277 279
297 297 296 296 295 289 283 280 286 291 284 277 276 274 277 281 284 285 285 286 285 285 284 282 275 267 270 264 264 260 261 261 261 264 263 268 269 268 270 271 274 275 273 272
296 295 294 295 294 289 280 286 286 285 276 273 270 273 271 278 272 273 284 283 284 282 277 272 267 263 262 255 258 259 259 259 262 259 261 264 266 267 266 268 270 271 269 269
295 292 291 284 279 276 278 290 285 279 277 267 267 271 265 275 273 277 274 283 276 277 270 266 265 258 253 255 256 256 257 256 257 258 261 261 262 262 264 263 263 266 267 267
290 284 279 273 274 286 285 275 273 269 264 265 266 268 270 276 272 265 269 272 273 268 266 265 258 255 259 258 257 257 257 257 257 255 256 257 257 259 261 261 262 263 265 265
276 271 273 276 281 275 268 264 264 260 260 258 260 263 265 274 269 266 276 267 270 267 265 263 258 256 258 258 256 257 257 257 257 257 258 259 258 258 259 260 261 262 263 263
276 275 273 270 265 264 264 252 256 258 255 256 255 259 265 266 276 268 270 266 267 262 264 261 257 258 257 256 255 255 256 256 256 257 257 258 259 258 258 259 259 260 261 263
272 267 263 266 258 259 255 253 254 254 255 256 256 257 260 263 272 266 264 262 260 262 257 254 256 256 256 255 255 255 256 256 256 256 257 258 258 259 258 258 259 260 260 261
261 260 258 256 254 252 249 249 249 254 257 254 257 255 256 258 263 263 260 261 260 253 253 254 252 253 254 255 255 254 254 255 255 255 256 257 258 258 258 258 259 259 259 260
256 257 252 252 253 252 252 250 249 254 253 256 256 258 263 256 257 258 259 256 249 252 254 251 252 251 252 253 254 254 254 254 254 255 256 256 257 258 258 258 258 259 259 259
255 253 251 249 250 249 249 248 248 255 257 258 257 256 258 255 252 254 249 252 253 253 247 249 252 253 253 253 254 254 255 255 255 255 256 257 257 257 257 258 257 258 258 258
252 252 244 247 247 249 250 252 254 258 255 258 258 259 256 256 253 250 248 252 249 246 248 250 253 253 253 254 254 255 255 255 255 255 256 256 257 258 257 255 256 257 258 258
Wind_Speed
37 38 37 39 37 34 23 5 7 21 24 14 10 14 11 6 5 5 5 6 5 9 18 8 11 10 7 9 12 15 10 3 4 8 4 7 14 18 14 7 7 3 1 15
34 35 37 39 35 30 7 8 13 16 21 9 12 8 7 5 6 5 5 5 3 3 10 6 5 7 1 6 13 10 10 7 5 3 3 3 10 12 14 20 5 16 4 21
30 32 37 38 37 28 7 10 13 10 4 2 17 17 12 8 4 5 5 7 6 7 5 6 7 5 2 1 7 11 15 4 12 19 6 5 9 15 18 14 9 25 19 37
25 29 39 42 33 20 8 4 6 3 9 8 15 7 6 15 7 3 3 5 5 10 6 3 4 5 1 2 6 5 6 7 7 14 9 3 2 9 19 23 27 11 30 28
22 32 42 35 24 11 8 7 8 3 6 19 20 10 13 19 5 6 2 11 8 4 9 8 9 8 4 5 5 8 6 4 4 14 12 19 19 13 14 26 27 24 32 30
48 37 29 21 15 11 5 1 4 7 14 13 15 5 14 8 9 9 6 12 7 3 6 7 7 5 3 4 5 5 5 4 4 8 5 7 13 34 22 17 18 22 23 37
36 32 26 22 15 11 6 2 6 8 5 10 5 9 7 13 5 9 4 7 7 4 7 7 6 6 2 2 6 5 6 4 3 5 4 8 11 3 24 29 27 22 26 30
33 29 26 23 22 18 8 2 6 6 7 8 13 14 8 9 7 6 6 3 3 10 7 5 5 4 6 6 10 11 12 5 3 3 6 11 17 22 7 11 29 28 31 35
28 27 25 25 21 19 9 6 3 7 12 3 7 11 13 6 4 5 4 5 5 7 4 5 5 7 5 6 5 13 15 15 7 2 6 11 31 5 10 6 22 28 23 34
25 24 24 23 24 20 9 4 5 8 8 2 2 5 7 7 6 5 5 3 4 4 3 3 4 5 6 4 7 5 6 7 19 17 7 13 6 8 8 14 15 4 22 33
26 23 23 20 20 18 11 1 6 7 6 4 5 3 6 5 4 6 5 5 1 3 5 5 5 4 7 2 5 10 12 9 10 11 10 21 5 6 22 13 6 4 7 17
25 23 21 20 20 18 7 6 4 8 10 5 3 8 7 6 4 7 3 5 5 5 4 1 3 2 3 5 8 3 8 9 8 12 11 0 4 4 10 11 7 6 7 9
24 23 18 19 18 18 12 4 3 7 5 5 6 5 5 6 5 2 6 1 3 4 3 4 4 7 3 5 8 4 3 6 5 1 2 8 10 10 12 17 12 11 7 8
24 23 22 20 21 20 13 7 4 5 6 7 2 1 4 2 3 6 4 4 3 3 2 2 4 3 4 3 3 2 4 7 5 7 5 10 2 15 18 20 15 12 9 7
26 26 26 26 27 27 17 8 6 4 6 6 3 1 4 3 2 4 4 4 2 2 2 2 3 2 1 2 4 4 7 6 2 1 9 8 10 17 22 20 18 15 11 10
25 21 18 15 9 4 4 6 5 8 3 7 4 0 3 5 1 2 3 4 1 0 2 2 1 5 2 1 3 5 10 10 9 8 18 17 21 22 14 18 15 14 13 9
24 27 28 25 25 12 8 3 3 8 3 6 5 2 2 1 1 1 1 2 2 2 1 1 3 6 7 3 2 12 12 15 15 9 17 7 12 13 19 18 15 10 9 11
19 20 19 18 19 13 7 7 10 3 7 6 5 1 4 4 2 2 1 2 2 2 3 3 4 4 4 4 9 12 13 17 6 17 15 12 14 13 16 16 14 10 11 10
12 11 8 6 9 6 3 12 6 6 7 6 4 3 3 4 1 0 3 1 2 2 3 3 3 3 4 4 11 12 13 12 15 18 13 11 11 14 14 14 15 11 11 10
10 8 7 6 3 14 7 9 7 9 7 8 5 3 2 2 2 3 2 1 2 3 2 4 4 2 3 5 8 9 11 12 11 11 11 17 15 13 14 12 10 10 8 7
6 5 3 3 11 5 7 5 7 5 7 6 3 1 3 4 4 2 1 2 1 2 1 3 2 2 3 8 8 8 9 9 8 6 6 7 8 9 9 10 10 9 10 9
4 5 3 4 9 6 9 2 5 8 1 5 2 4 3 5 3 3 4 3 4 1 1 3 2 2 5 7 9 9 9 10 10 7 7 8 7 8 8 7 9 9 8 9
5 8 8 7 7 12 7 3 5 4 5 5 6 4 3 5 2 2 4 6 1 2 5 1 0 3 5 7 7 8 8 9 8 8 9 9 9 9 9 8 9 8 9 10
8 7 10 7 6 3 3 3 4 4 2 4 3 3 1 3 5 2 6 2 5 5 3 3 1 4 6 6 6 6 9 9 10 10 9 8 8 7 7 8 8 8 9 9
7 7 5 4 2 1 2 1 2 3 2 3 3 3 1 3 4 3 3 6 3 3 2 1 1 3 3 5 6 6 6 7 7 7 8 8 8 7 7 9 8 8 8 8
7 9 4 2 3 4 4 2 3 2 3 2 1 1 4 4 2 6 2 4 4 3 2 3 1 1 1 4 5 6 6 6 6 6 7 5 6 6 5 6 8 8 8 7
7 3 1 3 2 4 3 1 2 3 2 1 1 3 2 1 4 2 2 3 3 4 2 2 2 3 4 5 6 6 7 6 6 6 6 6 6 4 6 9 8 7 7 6
Wind_Direction
166 164 162 156 152 153 181 120 120 146 142 159 165 170 138 114 125 69 92 102 99 146 166 167 185 187 165 181 150 194 189 198 213 218 214 225 234 216 197 207 208 264 38 263
154 160 162 159 155 159 185 108 112 140 150 152 155 131 107 106 129 132 138 121 142 135 148 136 166 154 140 167 172 166 159 216 239 306 303 216 213 222 243 236 296 242 164 256
161 165 166 164 165 164 116 118 128 128 86 96 142 144 142 118 88 100 102 111 85 98 93 17 153 150 39 76 192 174 165 183 209 232 235 169 203 217 221 245 228 244 240 264
169 173 178 143 136 147 90 50 110 106 145 140 131 100 122 135 125 65 139 54 132 132 116 81 127 131 105 308 200 204 213 218 226 244 236 227 310 223 208 214 232 248 249 254
173 126 124 130 135 103 79 112 138 65 102 140 136 135 178 151 116 136 167 122 138 153 142 173 175 131 150 183 167 184 189 252 227 258 262 256 246 235 247 222 226 234 245 261
129 133 129 115 90 72 82 48 45 96 132 145 139 176 163 151 122 16 120 127 111 165 110 114 141 113 125 76 163 161 156 180 231 264 238 315 244 235 235 251 245 228 242 246
111 104 100 87 77 98 108 77 94 96 80 125 122 134 123 139 106 123 138 112 99 165 114 88 69 84 118 186 245 175 154 141 113 252 48 250 247 318 226 229 237 226 246 255
111 91 84 86 84 83 85 59 88 99 95 108 110 115 115 105 88 84 119 87 140 143 87 86 56 12 10 260 210 209 212 161 251 204 201 287 296 278 203 209 252 230 234 244
98 90 90 82 84 85 77 50 50 95 115 273 133 107 133 125 104 37 55 27 349 61 86 88 152 197 184 274 279 216 202 211 196 126 191 222 256 152 212 189 259 242 224 241
98 87 80 75 75 75 94 75 21 88 100 340 101 125 151 119 102 100 123 119 53 40 120 159 154 240 185 202 192 163 175 190 218 236 253 264 262 188 140 180 242 223 219 230
96 92 88 82 77 73 79 97 13 113 93 54 30 51 120 88 96 127 185 84 289 100 160 145 211 168 226 133 219 180 183 185 205 221 235 253 192 143 191 233 300 293 297 241
97 95 87 71 64 64 71 74 358 51 76 96 73 73 56 40 69 119 181 153 153 174 167 156 136 199 204 170 239 241 222 204 199 196 215 14 57 89 344 326 297 333 313 333
90 88 86 78 62 62 80 97 10 54 91 45 40 26 32 44 41 1 127 255 190 158 144 160 198 241 133 185 227 211 237 17 236 5 341 349 28 5 1 327 318 320 315 305
89 94 94 83 79 70 69 67 336 73 104 102 86 64 50 26 70 54 38 84 68 71 74 173 216 234 205 237 287 279 352 332 352 274 8 322 121 24 346 332 325 340 345 345
98 92 89 91 92 91 82 77 36 41 109 120 105 63 35 9 24 105 107 104 126 140 186 189 219 220 235 97 92 47 344 0 302 318 2 310 291 327 336 333 334 344 1 16
91 70 72 80 103 107 47 52 5 11 50 97 89 217 37 355 309 155 181 163 137 211 188 224 182 65 315 256 68 42 359 336 322 294 320 301 280 281 340 323 334 359 23 23
84 79 74 75 78 71 58 100 290 343 51 86 93 43 294 19 2 104 87 108 153 186 226 62 48 22 27 36 133 351 339 322 309 322 330 340 358 325 327 328 342 8 33 37
72 70 72 84 86 85 36 10 12 61 89 65 105 111 36 10 2 80 214 141 158 71 85 56 47 36 42 79 335 336 336 325 307 339 328 294 312 336 346 340 348 26 32 32
51 30 59 57 37 43 284 331 47 46 79 100 70 87 228 356 307 283 9 117 92 56 67 52 59 11 56 331 329 330 335 333 312 318 305 347 348 350 354 358 357 14 20 34
24 35 39 31 319 308 341 5 24 21 355 21 73 333 328 343 355 331 71 20 141 80 51 107 65 106 129 20 336 320 321 324 327 340 345 342 343 344 345 359 358 359 0 38
37 45 65 253 326 46 32 41 49 334 35 12 329 332 308 329 47 294 355 190 347 80 320 94 31 55 20 354 336 332 328 322 314 308 303 319 316 326 338 352 1 3 9 25
116 116 89 29 30 29 73 4 343 42 135 330 330 309 340 299 319 70 331 104 35 154 2 68 64 52 3 344 335 331 331 333 325 333 337 346 351 352 344 355 0 7 3 24
37 43 46 23 322 43 57 357 342 24 348 358 345 317 350 323 316 18 51 67 186 91 44 177 355 12 2 344 332 330 333 335 335 347 360 360 6 13 9 5 5 13 27 23
62 43 26 53 358 51 177 185 202 262 355 333 306 275 339 302 17 2 78 262 60 51 51 272 313 7 350 339 328 326 336 342 343 346 354 358 12 9 8 16 13 19 27 23
62 47 51 58 242 308 273 253 14 298 253 328 335 299 301 342 53 28 73 34 21 180 215 246 298 325 334 323 323 329 339 341 342 344 350 356 360 1 15 13 13 21 27 30
68 45 54 325 58 326 357 354 304 292 328 295 212 283 54 22 102 48 160 110 210 222 202 232 251 296 323 325 322 327 331 340 339 347 349 348 358 1 359 20 19 17 20 27
50 29 30 132 142 205 251 234 268 307 303 17 327 54 195 53 59 39 199 192 207 209 262 277 348 344 344 335 332 341 341 346 349 339 351 356 340 5 26 26 6 1 12 11